User: anonymous   Login
Location: Camp Creek
(33.9000°N, 111.8167°W)
Time: 21:55:24
(UTC-07:00)
Language:

DELTA 2 R/B (1) - Orbit

View from above orbital plane
View from above orbital plane
View from above satellite
View from above satellite

Ground track
Ground track

The orbit data is extracted from the following two-line orbital elements,

1 27665U 03005C   16180.89930046 -.00000081  00000-0  18681-5 0  9998
2 27665  39.5758 109.0916 0008601 140.5519 272.2933 14.28411288700409
Epoch (UTC): 28 June 2016 21:34:59
Eccentricity: 0.0008601
inclination: 39.5758°
perigee height: 791 km
apogee height: 803 km
right ascension of ascending node: 109.0916°
argument of perigee: 140.5519°
revolutions per day: 14.28411288
mean anomaly at epoch: 272.2933°
orbit number at epoch: 70040

The dashed part of the orbit path shows where the satellite is in the earth's shadow,  

DLR